Weather in Vyyezdnoye

Russia / Nizhny Novgorod Oblast'     55°22′56″N   43°46′53″E
temp.,
°C
wind,
m/s
gust,
m/s
humid.,
%
clouds,
%
prec.,
mm/h
press.,
hPa
HPBL,
m
10 may, mon
mon1000:00+8nw4797100 0.0 1014475
03:00+6nnw4996100 0.1 1017493
06:00+6n51096100 0.8 1018475
09:00+6n51095100 1.1 1021469
12:00+6n41096100 0.9 1023433
15:00+7n51094100 1.1 1024414
18:00+8nne4993100 0.0 1025482
21:00+7nne51197100 0.0 1026339
11 may, tue
tue1100:00+7nne41198100 0.0 1026309
03:00+7ne4119798 0.0 1026296
06:00+8ne4129237 0.0 1027318
09:00+14ne59755 0.0 1027520
12:00+19ene576411 0.0 1026792
15:00+21ene576099 0.0 10261139
18:00+18ene4875100 0.7 1026267
21:00+14ene3487100 0.9 102766
12 may, wed
wed1200:00+13ene239499 0.2 102856
03:00+12ne379521 0.2 1027133
06:00+13ene411905 0.0 1027289
09:00+19e5106496 0.0 1026695
12:00+21se6106252 0.6 10261551
15:00+18ese51262100 1.0 1025787
18:00+18ese4107097 0.0 1025600
21:00+16ese31173100 0.0 1025394
13 may, thu
thu1300:00+14ese2384100 0.0 102565
03:00+14ese378294 0.0 1025166
06:00+14ese4117667 0.0 1025297
09:00+19ese5105731 0.0 1024645
12:00+22ese694791 0.0 10231008
15:00+19se5126498 0.0 1023701
18:00+17se41080100 0.1 1023342
21:00+14ese368556 0.1 1022110
14 may, fri
fri1400:00+13ese249472 0.2 102277
03:00+15se2790100 0.4 1022168
06:00+15se39849 0.0 1022267
09:00+20sse58568 0.0 1021563
12:00+24sse584776 0.0 1020993
15:00+25s485199 0.0 10201396
18:00+22s49638 0.0 1019521
21:00+17se39839 0.0 1019152